This is the latest recevied weather packets stored in our database for station/object ED1ZAI-14. If no packets are shown the sender has not sent any weather packets the latest 1 day(s).
| Time | Temp. | Humidity | Pressure | Rain* | Wind** | Luminosity | Snow |
|---|---|---|---|---|---|---|---|
| 1788602653 | 25° C | 27% | 819.2 hPa | - | - | - | - |
| 1788600853 | 23.33° C | 28% | 819 hPa | - | - | - | - |
| 1788599053 | 25.56° C | 26% | 818.7 hPa | - | - | - | - |
| 1788597253 | 22.78° C | 29% | 818.4 hPa | - | - | - | - |
| 1788595453 | 23.89° C | 29% | 818.3 hPa | - | - | - | - |
| 1788593653 | 22.22° C | 30% | 818.2 hPa | - | - | - | - |
| 1788591853 | 21.67° C | 31% | 818.3 hPa | - | - | - | - |
| 1788590054 | 20° C | 32% | 818.1 hPa | - | - | - | - |
| 1788588253 | 18.89° C | 33% | 818 hPa | - | - | - | - |
| 1788586453 | 18.89° C | 33% | 818 hPa | - | - | - | - |
| 1788584653 | 18.89° C | 33% | 818 hPa | - | - | - | - |
| 1788582852 | 19.44° C | 33% | 818.1 hPa | - | - | - | - |
| 1788581052 | 19.44° C | 33% | 818.1 hPa | - | - | - | - |
| 1788579252 | 19.44° C | 34% | 818.2 hPa | - | - | - | - |
| 1788577452 | 19.44° C | 34% | 818.1 hPa | - | - | - | - |
| 1788575652 | 19.44° C | 35% | 818.3 hPa | - | - | - | - |
| 1788573852 | 19.44° C | 34% | 818.2 hPa | - | - | - | - |
| 1788572052 | 20° C | 34% | 818.3 hPa | - | - | - | - |
| 1788570254 | 20° C | 33% | 818.3 hPa | - | - | - | - |
| 1788568453 | 20.56° C | 33% | 818.3 hPa | - | - | - | - |
| 1788566653 | 20.56° C | 32% | 818.5 hPa | - | - | - | - |
* Rain since midnight (hover to see other rain measurements)
** Current wind speed in m/s (hover to see current wind gust speed)